Weather past 2 weeks in Cayenne, French Guiana

Now
73 °F

Passing clouds.


Feels Like: 70 °F
Forecast: 76 / 83 °F
Wind: No wind

Location: Cayenne / Rochambeau

Current Time: Dec 18, 2014 at 4:17:24 AM

Latest Report: Dec 18, 2014 at 3:30 AM


Visibility: N/A

Pressure: 29.83 "Hg

Humidity: 94%

Dew point: 72 °F

Location of CayenneLocation

Historic Weather in Cayenne — Graph

°F

Cayenne temperature yesterday

Maximum temperature yesterday: 88 °F (at 2:30 PM)
Minimum temperature yesterday: 75 °F (at 1:00 AM)
Average temperature yesterday: 80 °F

Past Weeks' High & Low Weather Summary

 TemperatureHumidityPressure
High90 °F (Dec 3, 12:00 PM)100% (Dec 3, 5:00 AM)29.95 "Hg (Dec 3, 5:00 AM)
Low72 °F (Dec 3, 4:30 AM)52% (Dec 3, 12:30 PM)29.74 "Hg (Dec 3, 3:00 PM)
Average79 °F83%29.85 "Hg
* Reported Dec 3 3:00 AM — Dec 18 3:00 AM, Cayenne, Weather by CustomWeather, © 2014

Note: Actual official high and low records may vary slightly from our data, if they occured in-between our weather recording intervals... More about our weather records

Advertising

Cayenne weather history for previous 24 hours

 ConditionsComfort  
Time TempWeatherWind HumidityBarometerVisibility
3:00 AM
Dec 18
75 °FPassing clouds.1 mph94%29.83 "HgN/A
2:30 AM75 °FMild.2 mph94%29.86 "HgN/A
2:00 AM75 °FPassing clouds.2 mph94%29.86 "HgN/A
1:30 AM75 °FMild.2 mph94%29.86 "HgN/A
12:30 AM75 °FPassing clouds.No wind94%29.89 "HgN/A
12:00 AM75 °FPassing clouds.No wind94%29.89 "HgN/A
11:30 PM
Dec 17
77 °FPartly cloudy.1 mph89%29.89 "HgN/A
11:00 PM77 °FPassing clouds.No wind89%29.89 "HgN/A
10:30 PM77 °FPassing clouds.No wind89%29.89 "HgN/A
10:00 PM77 °FPassing clouds.No wind89%29.89 "HgN/A
9:30 PM79 °FPassing clouds.No wind84%29.89 "HgN/A
9:00 PM79 °FPassing clouds.2 mph84%29.89 "HgN/A
8:30 PM79 °FWarm.No wind84%29.89 "HgN/A
8:00 PM79 °FWarm.2 mph84%29.86 "HgN/A
7:30 PM81 °FPassing clouds.3 mph79%29.86 "HgN/A
7:00 PM81 °FPassing clouds.5 mph79%29.86 "HgN/A
6:30 PM81 °FWarm.6 mph79%29.83 "HgN/A
6:00 PM82 °FPassing clouds.9 mph74%29.83 "HgN/A
5:30 PM84 °FPassing clouds.7 mph70%29.83 "HgN/A
5:00 PM84 °FWarm.9 mph70%29.83 "HgN/A
4:30 PM86 °FPassing clouds.10 mph66%29.83 "HgN/A
4:00 PM84 °FScattered clouds.12 mph70%29.83 "HgN/A
3:30 PM84 °FBroken clouds.13 mph70%29.83 "HgN/A
3:00 PM84 °FPartly sunny.13 mph70%29.83 "HgN/A
2:30 PM88 °FScattered clouds.13 mph62%29.86 "HgN/A
2:00 PM86 °FScattered clouds.13 mph66%29.86 "HgN/A
1:30 PM86 °FPartly sunny.15 mph66%29.89 "HgN/A
1:00 PM86 °FPassing clouds.13 mph66%29.89 "HgN/A
12:30 PM84 °FWarm.12 mph70%29.92 "HgN/A
12:00 PM84 °FWarm.13 mph70%29.92 "HgN/A
11:30 AM86 °FPartly sunny.13 mph66%29.95 "HgN/A
11:00 AM84 °FBroken clouds.13 mph70%29.95 "HgN/A
10:30 AM84 °FBroken clouds.9 mph70%29.95 "HgN/A
10:00 AM82 °FPartly sunny.14 mph74%29.95 "HgN/A
9:30 AM84 °FPassing clouds.14 mph70%29.95 "HgN/A
9:00 AM82 °FScattered clouds.12 mph74%29.95 "HgN/A
8:30 AM82 °FBroken clouds.7 mph79%29.95 "HgN/A
8:00 AM81 °FPassing clouds.2 mph89%29.92 "HgN/A
7:30 AM77 °FPassing clouds.No wind94%29.92 "HgN/A
7:00 AM77 °FBroken clouds.No wind94%29.89 "HgN/A
6:30 AM75 °FBroken clouds.3 mph100%29.89 "HgN/A
6:00 AM75 °FPassing clouds.1 mph94%29.89 "HgN/A
5:30 AM75 °FMostly cloudy.2 mph94%29.89 "HgN/A
5:00 AM75 °FPartly cloudy.1 mph94%29.89 "HgN/A
4:30 AM75 °FPartly cloudy.2 mph94%29.89 "HgN/A
4:00 AM75 °FPassing clouds.No wind94%29.89 "HgN/A
Weather by CustomWeather, © 2014

See weather overviewHow to use our weather pages